Location: Les Coudrans
(46.1056°N, 1.1158°W)
Time: 13:42:42
(UTC+00:00)

Cosmos 2360 Rocket - Pass Details

Date: 03 March 2021
Orbit: 832 x 846 km, 71.0° (Epoch: 14 April)

Event Time Altitude Azimuth Distance (km) Brightness Sun altitude
Rises 20:20:17 0° 231° (SW) 3,380 5.8 -25.9°
Reaches altitude 10° 20:22:54 10° 240° (WSW) 2,452 5.1 -26.3°
Maximum altitude 20:28:04 36° 307° (NW) 1,309 3.6 -27.1°
Drops below altitude 10° 20:33:16 10° 13° (NNE) 2,473 4.7 -28.0°
Sets 20:35:57 0° 22° (NNE) 3,414 5.4 -28.4°
